Flag for Micronesia Weather past 2 weeks in Palikir, Ponape, Micronesia

Now
77 °F

Scattered clouds.


Feels Like: 77 °F
Forecast: 76 / 88 °F
Wind: No wind

Location: Pohnpei

Current Time: Sep 2, 2014 at 7:41:26 AM

Latest Report: Sep 2, 2014 at 6:52 AM


Visibility: 15 mi

Pressure: 29.85 "Hg

Humidity: 96%

Dew point: 76 °F

Location of PalikirLocation

Historic Weather in Palikir — Graph

°F

Palikir temperature yesterday

Maximum temperature yesterday: 87 °F (at 10:50 AM)
Minimum temperature yesterday: 74 °F (at 5:52 AM)
Average temperature yesterday: 81 °F

Past Weeks' High & Low Weather Summary

 TemperatureHumidityPressure
High91 °F (Aug 19, 10:54 AM)99% (Sep 2, 5:52 AM)29.94 "Hg (Sep 2, 5:52 AM)
Low73 °F (Aug 25, 5:53 AM)61% (Aug 29, 11:52 AM)29.73 "Hg (Aug 30, 3:53 PM)
Average81 °F86%29.83 "Hg
* Reported Aug 18 5:53 AM — Sep 2 5:52 AM, Palikir, Weather by CustomWeather, © 2014

Note: Actual official high and low records may vary slightly from our data, if they occured in-between our weather recording intervals... More about our weather records

Advertising

Palikir weather history for previous 24 hours

 ConditionsComfort  
Time TempWeatherWind HumidityBarometerVisibility
5:52 AM
Sep 2
76 °FPassing clouds.No wind99%29.85 "Hg15 mi
4:54 AM75 °FMostly cloudy.3 mph95%29.81 "Hg15 mi
3:54 AM76 °FPassing clouds.3 mph96%29.84 "Hg15 mi
2:53 AM76 °FPassing clouds.3 mph98%29.84 "Hg15 mi
1:52 AM76 °FMostly cloudy.3 mph95%29.85 "Hg15 mi
12:52 AM77 °FMostly cloudy.3 mph94%29.85 "Hg15 mi
11:56 PM
Sep 1
77 °FMostly cloudy.3 mph95%29.88 "Hg15 mi
10:52 PM78 °FMostly cloudy.3 mph90%29.88 "Hg15 mi
9:57 PM79 °FMostly cloudy.5 mph96%29.88 "Hg15 mi
8:52 PM79 °FMostly cloudy.3 mph94%29.84 "Hg15 mi
7:52 PM81 °FMostly cloudy.2 mph89%29.85 "Hg15 mi
6:54 PM81 °FMostly cloudy.3 mph92%29.84 "Hg15 mi
5:54 PM85 °FMore clouds than sun.3 mph78%29.83 "Hg15 mi
4:56 PM85 °FMore clouds than sun.3 mph74%29.81 "Hg15 mi
3:53 PM87 °FBroken clouds.6 mph73%29.80 "Hg15 mi
2:50 PM86 °FBroken clouds.3 mph77%29.82 "Hg15 mi
1:50 PM85 °FBroken clouds.3 mph77%29.82 "Hg15 mi
12:50 PM84 °FCloudy.3 mph80%29.85 "Hg15 mi
11:50 AM84 °FBroken clouds.6 mph79%29.86 "Hg15 mi
10:50 AM87 °FBroken clouds.6 mph73%29.88 "Hg15 mi
8:50 AM85 °FScattered clouds.3 mph77%29.88 "Hg15 mi
7:51 AM82 °FMore clouds than sun.3 mph81%29.85 "Hg15 mi
Weather by CustomWeather, © 2014

See weather overviewHow to use our weather pages